03-08-2022, 00:00:00,    201,    0.0,   17.1,   0.00,   0.00, 1010.8,   81.5, -999.0
03-08-2022, 00:00:09,    206,    0.4,   17.1,   0.00,   0.00, 1010.8,   81.7, -999.0
03-08-2022, 00:00:19,    207,    0.7,   17.0,   0.00,   0.00, 1010.8,   81.8, -999.0
03-08-2022, 00:00:29,    160,    1.3,   17.1,   0.00,   0.00, 1010.8,   81.8, -999.0
03-08-2022, 00:00:39,    187,    2.3,   17.0,   0.00,   0.00, 1010.8,   81.9, -999.0
03-08-2022, 00:00:49,    185,    0.4,   17.1,   0.00,   0.00, 1010.8,   81.7, -999.0
03-08-2022, 00:00:59,    185,    0.2,   17.0,   0.00,   0.00, 1010.8,   81.6, -999.0
03-08-2022, 00:01:09,    203,    0.2,   17.0,   0.00,   0.00, 1010.8,   81.7, -999.0
03-08-2022, 00:01:19,    217,    2.0,   17.1,   0.00,   0.00, 1010.8,   81.9, -999.0
03-08-2022, 00:01:29,    217,    0.4,   17.0,   0.00,   0.00, 1010.8,   81.7, -999.0
03-08-2022, 00:01:39,    197,    0.3,   17.0,   0.00,   0.00, 1010.8,   81.6, -999.0
03-08-2022, 00:01:49,    203,    0.8,   17.1,   0.00,   0.00, 1010.8,   81.9, -999.0
03-08-2022, 00:01:59,    150,    2.2,   17.0,   0.00,   0.00, 1010.8,   81.9, -999.0
03-08-2022, 00:02:09,    168,    0.7,   17.0,   0.00,   0.00, 1010.8,   81.9, -999.0
03-08-2022, 00:02:18,    168,    0.5,   17.1,   0.00,   0.00, 1010.8,   81.7, -999.0
03-08-2022, 00:02:29,    173,    1.4,   17.0,   0.00,   0.00, 1010.8,   81.8, -999.0
03-08-2022, 00:02:38,    172,    0.7,   17.0,   0.00,   0.00, 1010.8,   82.0, -999.0
03-08-2022, 00:02:48,    173,    0.2,   17.0,   0.00,   0.00, 1010.8,   81.8, -999.0
03-08-2022, 00:02:58,    182,    0.2,   17.0,   0.00,   0.00, 1010.8,   81.8, -999.0
03-08-2022, 00:03:08,    185,    0.2,   17.0,   0.00,   0.00, 1010.8,   81.8, -999.0
03-08-2022, 00:03:18,    187,    0.4,   17.0,   0.00,   0.00, 1010.8,   81.9, -999.0
03-08-2022, 00:03:28,    188,    0.1,   16.9,   0.00,   0.00, 1010.8,   81.8, -999.0
03-08-2022, 00:03:38,    189,    0.1,   17.0,   0.00,   0.00, 1010.8,   81.7, -999.0
03-08-2022, 00:03:48,    194,    0.0,   16.9,   0.00,   0.00, 1010.7,   81.6, -999.0
03-08-2022, 00:03:58,    211,    0.0,   16.9,   0.00,   0.00, 1010.8,   81.7, -999.0
03-08-2022, 00:04:08,    205,    0.9,   17.0,   0.00,   0.00, 1010.9,   82.0, -999.0
03-08-2022, 00:04:18,    205,    0.1,   17.0,   0.00,   0.00, 1010.8,   81.7, -999.0
03-08-2022, 00:04:28,    211,    1.0,   17.0,   0.00,   0.00, 1010.9,   82.0, -999.0
03-08-2022, 00:04:38,    151,    0.7,   17.0,   0.00,   0.00, 1010.8,   81.8, -999.0
03-08-2022, 00:04:47,    181,    0.7,   17.0,   0.00,   0.00, 1010.9,   82.0, -999.0
03-08-2022, 00:04:58,    219,    0.9,   17.0,   0.00,   0.00, 1010.9,   82.0, -999.0
03-08-2022, 00:05:08,    225,    2.2,   17.0,   0.00,   0.00, 1010.9,   82.0, -999.0
03-08-2022, 00:05:17,    142,    1.4,   17.0,   0.00,   0.00, 1010.9,   82.1, -999.0
03-08-2022, 00:05:27,    203,    0.7,   17.0,   0.00,   0.00, 1010.8,   81.9, -999.0
03-08-2022, 00:05:37,    205,    1.2,   17.0,   0.00,   0.00, 1010.8,   81.9, -999.0
03-08-2022, 00:05:47,    217,    2.2,   17.0,   0.00,   0.00, 1010.9,   82.0, -999.0
03-08-2022, 00:05:57,    233,    3.1,   17.0,   0.00,   0.00, 1010.9,   82.1, -999.0
03-08-2022, 00:06:07,    202,    1.3,   17.0,   0.00,   0.00, 1010.9,   82.1, -999.0
03-08-2022, 00:06:17,    228,    2.6,   17.0,   0.00,   0.00, 1010.9,   82.0, -999.0
03-08-2022, 00:06:27,    219,    2.1,   17.0,   0.00,   0.00, 1010.9,   82.1, -999.0
03-08-2022, 00:06:37,    216,    0.5,   16.9,   0.00,   0.00, 1010.9,   82.0, -999.0
03-08-2022, 00:06:47,    216,    0.3,   16.9,   0.00,   0.00, 1010.9,   82.0, -999.0
03-08-2022, 00:06:57,    215,    0.1,   16.9,   0.00,   0.00, 1010.8,   81.9, -999.0
03-08-2022, 00:07:07,    215,    0.0,   16.9,   0.00,   0.00, 1010.8,   82.0, -999.0
03-08-2022, 00:07:17,    171,    0.7,   16.9,   0.00,   0.00, 1010.8,   82.2, -999.0
03-08-2022, 00:07:27,    213,    1.5,   17.0,   0.00,   0.00, 1010.8,   82.3, -999.0
03-08-2022, 00:07:37,    213,    0.8,   16.9,   0.00,   0.00, 1010.9,   82.2, -999.0
03-08-2022, 00:07:46,    213,    0.8,   17.0,   0.00,   0.00, 1010.9,   82.2, -999.0
03-08-2022, 00:07:56,    212,    0.4,   16.9,   0.00,   0.00, 1010.8,   82.2, -999.0
03-08-2022, 00:08:07,    212,    0.0,   16.9,   0.00,   0.00, 1010.7,   81.9, -999.0
03-08-2022, 00:08:16,    212,    0.0,   16.9,   0.00,   0.00, 1010.7,   81.9, -999.0
03-08-2022, 00:08:26,    212,    0.0,   16.9,   0.00,   0.00, 1010.7,   81.9, -999.0
03-08-2022, 00:08:36,    212,    0.7,   17.0,   0.00,   0.00, 1010.8,   82.3, -999.0
03-08-2022, 00:08:46,    212,    0.1,   16.9,   0.00,   0.00, 1010.7,   82.1, -999.0
03-08-2022, 00:08:56,    212,    0.0,   16.8,   0.00,   0.00, 1010.7,   81.9, -999.0
03-08-2022, 00:09:06,    166,    0.3,   16.9,   0.00,   0.00, 1010.8,   82.2, -999.0
03-08-2022, 00:09:16,    179,    2.6,   16.9,   0.00,   0.00, 1010.8,   82.3, -999.0
03-08-2022, 00:09:26,    172,    1.5,   16.9,   0.00,   0.00, 1010.8,   82.2, -999.0
03-08-2022, 00:09:36,    193,    1.0,   16.9,   0.00,   0.00, 1010.8,   82.2, -999.0
03-08-2022, 00:09:46,    209,    1.2,   17.0,   0.00,   0.00, 1010.8,   82.2, -999.0
03-08-2022, 00:09:56,    200,    1.0,   16.9,   0.00,   0.00, 1010.8,   82.2, -999.0
03-08-2022, 00:10:06,    100,    1.8,   17.0,   0.00,   0.00, 1010.8,   82.3, -999.0
03-08-2022, 00:10:16,    162,    0.6,   16.9,   0.00,   0.00, 1010.8,   82.1, -999.0
03-08-2022, 00:10:26,    162,    0.3,   16.9,   0.00,   0.00, 1010.7,   82.1, -999.0
03-08-2022, 00:10:36,    165,    0.0,   16.9,   0.00,   0.00, 1010.7,   82.1, -999.0
03-08-2022, 00:10:45,    165,    0.0,   16.9,   0.00,   0.00, 1010.7,   81.9, -999.0
03-08-2022, 00:10:55,    209,    0.3,   16.9,   0.00,   0.00, 1010.8,   82.1, -999.0
03-08-2022, 00:11:06,    217,    1.7,   16.9,   0.00,   0.00, 1010.8,   82.4, -999.0
03-08-2022, 00:11:15,    218,    1.3,   16.9,   0.00,   0.00, 1010.8,   82.3, -999.0
03-08-2022, 00:11:25,    218,    0.5,   16.9,   0.00,   0.00, 1010.7,   82.2, -999.0
03-08-2022, 00:11:35,    216,    0.3,   16.9,   0.00,   0.00, 1010.7,   82.2, -999.0
03-08-2022, 00:11:45,    141,    0.1,   16.8,   0.00,   0.00, 1010.7,   82.1, -999.0
03-08-2022, 00:11:55,    204,    1.2,   16.9,   0.00,   0.00, 1010.8,   82.4, -999.0
03-08-2022, 00:12:05,    195,    1.3,   16.9,   0.00,   0.00, 1010.8,   82.4, -999.0
03-08-2022, 00:12:15,    199,    0.9,   16.8,   0.00,   0.00, 1010.9,   82.5, -999.0
03-08-2022, 00:12:25,    198,    0.6,   16.9,   0.00,   0.00, 1010.9,   82.5, -999.0
03-08-2022, 00:12:35,    202,    1.4,   16.9,   0.00,   0.00, 1010.8,   82.4, -999.0
03-08-2022, 00:12:45,    198,    0.8,   16.8,   0.00,   0.00, 1010.8,   82.5, -999.0
03-08-2022, 00:12:55,    244,    0.9,   16.8,   0.00,   0.00, 1010.8,   82.3, -999.0
03-08-2022, 00:13:05,    245,    0.0,   16.8,   0.00,   0.00, 1010.7,   82.3, -999.0
03-08-2022, 00:13:15,    245,    0.0,   16.8,   0.00,   0.00, 1010.7,   82.1, -999.0
03-08-2022, 00:13:24,    245,    0.0,   16.8,   0.00,   0.00, 1010.7,   82.3, -999.0
03-08-2022, 00:13:35,    227,    0.0,   16.9,   0.00,   0.00, 1010.7,   82.3, -999.0
03-08-2022, 00:13:45,    215,    0.5,   16.9,   0.00,   0.00, 1010.8,   82.5, -999.0
03-08-2022, 00:13:54,    214,    0.0,   16.9,   0.00,   0.00, 1010.8,   82.4, -999.0
03-08-2022, 00:14:05,    219,    1.1,   16.9,   0.00,   0.00, 1010.8,   82.5, -999.0
03-08-2022, 00:14:14,    218,    1.5,   17.0,   0.00,   0.00, 1010.8,   82.5, -999.0
03-08-2022, 00:14:24,    217,    1.3,   16.9,   0.00,   0.00, 1010.9,   82.5, -999.0
03-08-2022, 00:14:34,    217,    0.4,   16.9,   0.00,   0.00, 1010.8,   82.5, -999.0
03-08-2022, 00:14:44,    216,    1.0,   16.9,   0.00,   0.00, 1010.9,   82.5, -999.0
03-08-2022, 00:14:54,    215,    0.1,   16.9,   0.00,   0.00, 1010.8,   82.4, -999.0
03-08-2022, 00:15:04,    214,    0.2,   16.8,   0.00,   0.00, 1010.7,   82.2, -999.0
03-08-2022, 00:15:14,    171,    1.0,   16.9,   0.00,   0.00, 1010.8,   82.5, -999.0
03-08-2022, 00:15:24,    209,    0.8,   16.7,   0.00,   0.00, 1010.8,   82.3, -999.0
03-08-2022, 00:15:34,    220,    1.4,   16.9,   0.00,   0.00, 1010.8,   82.6, -999.0
03-08-2022, 00:15:44,    220,    0.2,   16.9,   0.00,   0.00, 1010.8,   82.5, -999.0
03-08-2022, 00:15:53,    167,    1.2,   16.9,   0.00,   0.00, 1010.8,   82.5, -999.0
03-08-2022, 00:16:04,    180,    1.7,   17.0,   0.00,   0.00, 1010.8,   82.5, -999.0
03-08-2022, 00:16:14,    178,    0.8,   16.9,   0.00,   0.00, 1010.8,   82.4, -999.0
03-08-2022, 00:16:23,    183,    0.7,   17.0,   0.00,   0.00, 1010.8,   82.6, -999.0
03-08-2022, 00:16:34,    224,    2.1,   16.9,   0.00,   0.00, 1010.8,   82.6, -999.0
03-08-2022, 00:16:44,    203,    2.7,   16.9,   0.00,   0.00, 1010.8,   82.6, -999.0
03-08-2022, 00:16:53,    167,    1.7,   16.9,   0.00,   0.00, 1010.8,   82.5, -999.0
03-08-2022, 00:17:03,    163,    1.2,   16.9,   0.00,   0.00, 1010.8,   82.5, -999.0
03-08-2022, 00:17:13,    163,    0.0,   16.7,   0.00,   0.00, 1010.7,   82.1, -999.0
03-08-2022, 00:17:23,    163,    0.2,   16.9,   0.00,   0.00, 1010.8,   82.5, -999.0
03-08-2022, 00:17:33,    233,    0.6,   16.8,   0.00,   0.00, 1010.8,   82.4, -999.0
03-08-2022, 00:17:43,    230,    0.7,   16.9,   0.00,   0.00, 1010.8,   82.6, -999.0
03-08-2022, 00:17:53,    231,    0.0,   16.8,   0.00,   0.00, 1010.7,   82.2, -999.0
03-08-2022, 00:18:03,    231,    0.0,   16.8,   0.00,   0.00, 1010.7,   82.3, -999.0
03-08-2022, 00:18:13,    143,    0.2,   16.8,   0.00,   0.00, 1010.8,   82.5, -999.0
03-08-2022, 00:18:23,    160,    0.3,   16.9,   0.00,   0.00, 1010.8,   82.7, -999.0
03-08-2022, 00:18:33,    161,    1.0,   16.9,   0.00,   0.00, 1010.8,   82.7, -999.0
03-08-2022, 00:18:43,    213,    0.9,   16.9,   0.00,   0.00, 1010.7,   82.7, -999.0
03-08-2022, 00:18:53,    207,    1.3,   16.9,   0.00,   0.00, 1010.8,   82.8, -999.0
03-08-2022, 00:19:03,    207,    0.1,   16.9,   0.00,   0.00, 1010.7,   82.5, -999.0
03-08-2022, 00:19:13,    207,    0.0,   16.8,   0.00,   0.00, 1010.7,   82.3, -999.0
03-08-2022, 00:19:22,    202,    1.2,   16.8,   0.00,   0.00, 1010.8,   82.6, -999.0
03-08-2022, 00:19:32,    202,    1.1,   16.9,   0.00,   0.00, 1010.8,   82.8, -999.0
03-08-2022, 00:19:43,    202,    0.9,   16.8,   0.00,   0.00, 1010.8,   82.6, -999.0
03-08-2022, 00:19:52,    202,    0.4,   16.9,   0.00,   0.00, 1010.8,   82.6, -999.0
03-08-2022, 00:20:02,    202,    0.6,   16.9,   0.00,   0.00, 1010.8,   82.7, -999.0
03-08-2022, 00:20:12,    202,    0.6,   16.9,   0.00,   0.00, 1010.8,   82.7, -999.0
03-08-2022, 00:20:22,    175,    1.1,   16.9,   0.00,   0.00, 1010.9,   82.8, -999.0
03-08-2022, 00:20:32,    211,    1.9,   16.9,   0.00,   0.00, 1010.8,   82.8, -999.0
03-08-2022, 00:20:42,    202,    1.9,   16.9,   0.00,   0.00, 1010.8,   82.8, -999.0
03-08-2022, 00:20:52,    206,    1.9,   16.9,   0.00,   0.00, 1010.8,   82.8, -999.0
03-08-2022, 00:21:02,    205,    0.3,   16.7,   0.00,   0.00, 1010.7,   82.7, -999.0
03-08-2022, 00:21:12,    197,    0.9,   16.8,   0.00,   0.00, 1010.8,   82.6, -999.0
03-08-2022, 00:21:22,    219,    2.9,   16.9,   0.00,   0.00, 1010.8,   82.8, -999.0
03-08-2022, 00:21:32,    188,    1.4,   16.9,   0.00,   0.00, 1010.8,   82.8, -999.0
03-08-2022, 00:21:42,    188,    0.0,   16.8,   0.00,   0.00, 1010.6,   82.5, -999.0
03-08-2022, 00:21:52,    188,    0.6,   16.8,   0.00,   0.00, 1010.7,   82.7, -999.0
03-08-2022, 00:22:01,    188,    0.1,   16.8,   0.00,   0.00, 1010.7,   82.6, -999.0
03-08-2022, 00:22:12,    187,    0.0,   16.8,   0.00,   0.00, 1010.6,   82.6, -999.0
03-08-2022, 00:22:22,    122,    1.4,   16.8,   0.00,   0.00, 1010.7,   82.8, -999.0
03-08-2022, 00:22:31,    224,    1.6,   16.8,   0.00,   0.00, 1010.7,   83.0, -999.0
03-08-2022, 00:22:41,    223,    0.4,   16.9,   0.00,   0.00, 1010.7,   82.8, -999.0
03-08-2022, 00:22:51,    203,    1.6,   16.8,   0.00,   0.00, 1010.7,   83.0, -999.0
03-08-2022, 00:23:01,    220,    2.4,   16.8,   0.00,   0.00, 1010.8,   82.9, -999.0
03-08-2022, 00:23:11,    224,    0.8,   16.9,   0.00,   0.00, 1010.8,   82.9, -999.0
03-08-2022, 00:23:21,    178,    1.2,   16.8,   0.00,   0.00, 1010.8,   82.9, -999.0
03-08-2022, 00:23:31,    178,    0.0,   16.8,   0.00,   0.00, 1010.7,   82.6, -999.0
03-08-2022, 00:23:41,    178,    0.2,   16.8,   0.00,   0.00, 1010.7,   82.9, -999.0
03-08-2022, 00:23:51,    178,    0.1,   16.8,   0.00,   0.00, 1010.7,   82.7, -999.0
03-08-2022, 00:24:01,    186,    0.9,   16.8,   0.00,   0.00, 1010.8,   83.0, -999.0
03-08-2022, 00:24:11,    214,    0.9,   16.9,   0.00,   0.00, 1010.8,   83.1, -999.0
03-08-2022, 00:24:21,    213,    0.5,   16.8,   0.00,   0.00, 1010.7,   82.9, -999.0
03-08-2022, 00:24:30,    213,    0.1,   16.8,   0.00,   0.00, 1010.7,   82.8, -999.0
03-08-2022, 00:24:41,    213,    0.1,   16.8,   0.00,   0.00, 1010.7,   82.9, -999.0
03-08-2022, 00:24:51,    211,    0.5,   16.8,   0.00,   0.00, 1010.7,   82.9, -999.0
03-08-2022, 00:25:00,    221,    0.9,   16.9,   0.00,   0.00, 1010.8,   83.1, -999.0
03-08-2022, 00:25:10,    153,    1.4,   16.9,   0.00,   0.00, 1010.8,   83.1, -999.0
03-08-2022, 00:25:21,    149,    1.6,   16.7,   0.00,   0.00, 1010.8,   82.9, -999.0
03-08-2022, 00:25:30,    219,    2.6,   16.8,   0.00,   0.00, 1010.8,   83.0, -999.0
03-08-2022, 00:25:40,    196,    2.5,   16.8,   0.00,   0.00, 1010.8,   83.0, -999.0
03-08-2022, 00:25:50,    208,    1.5,   16.8,   0.00,   0.00, 1010.7,   83.1, -999.0
03-08-2022, 00:26:00,    205,    1.4,   16.8,   0.00,   0.00, 1010.8,   83.0, -999.0
03-08-2022, 00:26:10,    213,    1.1,   16.8,   0.00,   0.00, 1010.8,   83.1, -999.0
03-08-2022, 00:26:20,    213,    0.0,   16.7,   0.00,   0.00, 1010.7,   82.9, -999.0
03-08-2022, 00:26:30,    207,    0.3,   16.6,   0.00,   0.00, 1010.7,   83.0, -999.0
03-08-2022, 00:26:40,    174,    0.5,   16.7,   0.00,   0.00, 1010.7,   83.2, -999.0
03-08-2022, 00:26:50,    176,    0.2,   16.6,   0.00,   0.00, 1010.7,   83.2, -999.0
03-08-2022, 00:27:00,    178,    0.1,   16.7,   0.00,   0.00, 1010.7,   83.2, -999.0
03-08-2022, 00:27:10,    179,    0.0,   16.7,   0.00,   0.00, 1010.7,   83.0, -999.0
03-08-2022, 00:27:20,    186,    0.2,   16.8,   0.00,   0.00, 1010.7,   83.2, -999.0
03-08-2022, 00:27:30,    193,    0.9,   16.8,   0.00,   0.00, 1010.7,   83.3, -999.0
03-08-2022, 00:27:40,    186,    0.0,   16.7,   0.00,   0.00, 1010.7,   83.1, -999.0
03-08-2022, 00:27:50,    185,    0.3,   16.8,   0.00,   0.00, 1010.7,   83.2, -999.0
03-08-2022, 00:27:59,    185,    0.1,   16.7,   0.00,   0.00, 1010.7,   83.1, -999.0
03-08-2022, 00:28:09,    210,    1.0,   16.8,   0.00,   0.00, 1010.8,   83.4, -999.0
03-08-2022, 00:28:20,    210,    0.0,   16.7,   0.00,   0.00, 1010.7,   83.0, -999.0
03-08-2022, 00:28:29,    210,    0.1,   16.8,   0.00,   0.00, 1010.7,   83.2, -999.0
03-08-2022, 00:28:39,    222,    0.7,   16.8,   0.00,   0.00, 1010.7,   83.2, -999.0
03-08-2022, 00:28:49,    200,    2.5,   16.9,   0.00,   0.00, 1010.8,   83.5, -999.0
03-08-2022, 00:28:59,    222,    1.5,   16.8,   0.00,   0.00, 1010.8,   83.5, -999.0
03-08-2022, 00:29:11,    209,    2.1,   16.8,   0.00,   0.00, 1010.8,   83.2, -999.0
03-08-2022, 00:29:19,    209,    0.8,   16.8,   0.00,   0.00, 1010.7,   83.4, -999.0
03-08-2022, 00:29:29,    210,    0.0,   16.7,   0.00,   0.00, 1010.7,   83.0, -999.0
03-08-2022, 00:29:39,    212,    0.7,   16.8,   0.00,   0.00, 1010.8,   83.4, -999.0
03-08-2022, 00:29:49,    211,    0.3,   16.7,   0.00,   0.00, 1010.7,   83.2, -999.0
03-08-2022, 00:29:59,    212,    0.1,   16.8,   0.00,   0.00, 1010.7,   83.3, -999.0
03-08-2022, 00:30:09,    211,    0.0,   16.7,   0.00,   0.00, 1010.7,   83.2, -999.0
03-08-2022, 00:30:19,    195,    0.5,   16.8,   0.00,   0.00, 1010.7,   83.3, -999.0
03-08-2022, 00:30:29,    195,    0.3,   16.7,   0.00,   0.00, 1010.7,   83.2, -999.0
03-08-2022, 00:30:38,    207,    0.8,   16.8,   0.00,   0.00, 1010.8,   83.3, -999.0
03-08-2022, 00:30:49,    204,    1.0,   16.8,   0.00,   0.00, 1010.8,   83.2, -999.0
03-08-2022, 00:30:58,    204,    1.2,   16.8,   0.00,   0.00, 1010.8,   83.3, -999.0
03-08-2022, 00:31:08,    204,    0.1,   16.7,   0.00,   0.00, 1010.7,   83.2, -999.0
03-08-2022, 00:31:18,    204,    0.0,   16.7,   0.00,   0.00, 1010.7,   82.9, -999.0
03-08-2022, 00:31:28,    204,    0.0,   16.7,   0.00,   0.00, 1010.7,   83.1, -999.0
03-08-2022, 00:31:38,    204,    0.1,   16.7,   0.00,   0.00, 1010.7,   83.3, -999.0
03-08-2022, 00:31:48,    204,    0.0,   16.8,   0.00,   0.00, 1010.7,   83.1, -999.0
03-08-2022, 00:31:58,    205,    0.0,   16.6,   0.00,   0.00, 1010.7,   83.2, -999.0
03-08-2022, 00:32:08,    204,    0.0,   16.7,   0.00,   0.00, 1010.6,   83.0, -999.0
03-08-2022, 00:32:18,    204,    0.0,   16.6,   0.00,   0.00, 1010.6,   83.0, -999.0
03-08-2022, 00:32:28,    205,    0.0,   16.7,   0.00,   0.00, 1010.7,   83.1, -999.0
03-08-2022, 00:32:38,    205,    0.0,   16.8,   0.00,   0.00, 1010.7,   83.1, -999.0
03-08-2022, 00:32:48,    188,    0.5,   16.7,   0.00,   0.00, 1010.7,   83.4, -999.0
03-08-2022, 00:32:58,    177,    1.0,   16.8,   0.00,   0.00, 1010.8,   83.6, -999.0
03-08-2022, 00:33:07,    206,    0.1,   16.8,   0.00,   0.00, 1010.7,   83.2, -999.0
03-08-2022, 00:33:18,    206,    1.1,   16.9,   0.00,   0.00, 1010.8,   83.7, -999.0
03-08-2022, 00:33:28,    206,    0.2,   16.9,   0.00,   0.00, 1010.7,   83.4, -999.0
03-08-2022, 00:33:37,    200,    0.5,   16.8,   0.00,   0.00, 1010.8,   83.4, -999.0
03-08-2022, 00:33:47,    261,    0.1,   16.8,   0.00,   0.00, 1010.7,   83.2, -999.0
03-08-2022, 00:33:58,    200,    0.1,   16.7,   0.00,   0.00, 1010.7,   83.1, -999.0
03-08-2022, 00:34:07,    198,    0.1,   16.8,   0.00,   0.00, 1010.7,   83.2, -999.0
03-08-2022, 00:34:17,    197,    0.5,   16.8,   0.00,   0.00, 1010.8,   83.4, -999.0
03-08-2022, 00:34:27,    197,    0.5,   16.8,   0.00,   0.00, 1010.7,   83.3, -999.0
03-08-2022, 00:34:37,    203,    1.0,   16.7,   0.00,   0.00, 1010.8,   83.3, -999.0
03-08-2022, 00:34:47,    207,    1.0,   16.8,   0.00,   0.00, 1010.8,   83.3, -999.0
03-08-2022, 00:34:57,    209,    0.8,   16.8,   0.00,   0.00, 1010.8,   83.3, -999.0
03-08-2022, 00:35:07,    209,    0.1,   16.7,   0.00,   0.00, 1010.7,   83.2, -999.0
03-08-2022, 00:35:17,    209,    0.0,   16.7,   0.00,   0.00, 1010.7,   83.1, -999.0
03-08-2022, 00:35:27,    209,    0.0,   16.7,   0.00,   0.00, 1010.6,   83.1, -999.0
03-08-2022, 00:35:37,    124,    0.2,   16.7,   0.00,   0.00, 1010.7,   83.3, -999.0
03-08-2022, 00:35:47,    164,    0.2,   16.7,   0.00,   0.00, 1010.7,   83.4, -999.0
03-08-2022, 00:35:57,    170,    0.1,   16.8,   0.00,   0.00, 1010.7,   83.4, -999.0
03-08-2022, 00:36:07,    207,    0.8,   16.8,   0.00,   0.00, 1010.7,   83.5, -999.0
03-08-2022, 00:36:16,    212,    0.8,   16.8,   0.00,   0.00, 1010.7,   83.6, -999.0
03-08-2022, 00:36:27,    211,    0.1,   16.7,   0.00,   0.00, 1010.7,   83.3, -999.0
03-08-2022, 00:36:36,    211,    0.0,   16.7,   0.00,   0.00, 1010.6,   83.1, -999.0
03-08-2022, 00:36:46,    211,    0.0,   16.7,   0.00,   0.00, 1010.6,   83.4, -999.0
03-08-2022, 00:36:57,    211,    0.0,   16.7,   0.00,   0.00, 1010.6,   83.3, -999.0
03-08-2022, 00:37:06,    211,    0.1,   16.8,   0.00,   0.00, 1010.6,   83.4, -999.0
03-08-2022, 00:37:16,    225,    1.0,   16.8,   0.00,   0.00, 1010.7,   83.5, -999.0
03-08-2022, 00:37:26,    225,    0.0,   16.9,   0.00,   0.00, 1010.7,   83.4, -999.0
03-08-2022, 00:37:36,    229,    0.7,   16.8,   0.00,   0.00, 1010.7,   83.4, -999.0
03-08-2022, 00:37:46,    127,    0.8,   16.8,   0.00,   0.00, 1010.7,   83.5, -999.0
03-08-2022, 00:37:56,    127,    0.0,   16.8,   0.00,   0.00, 1010.6,   83.2, -999.0
03-08-2022, 00:38:06,    127,    0.0,   16.7,   0.00,   0.00, 1010.6,   83.2, -999.0
03-08-2022, 00:38:16,    131,    0.0,   16.7,   0.00,   0.00, 1010.6,   83.1, -999.0
03-08-2022, 00:38:26,    132,    0.0,   16.6,   0.00,   0.00, 1010.7,   83.3, -999.0
03-08-2022, 00:38:36,    132,    0.0,   16.7,   0.00,   0.00, 1010.6,   83.2, -999.0
03-08-2022, 00:38:46,    182,    0.0,   16.7,   0.00,   0.00, 1010.6,   83.2, -999.0
03-08-2022, 00:38:56,    186,    0.2,   16.8,   0.00,   0.00, 1010.7,   83.4, -999.0
03-08-2022, 00:39:06,    189,    0.0,   16.8,   0.00,   0.00, 1010.7,   83.4, -999.0
03-08-2022, 00:39:15,    166,    0.4,   16.8,   0.00,   0.00, 1010.7,   83.4, -999.0
03-08-2022, 00:39:26,    186,    0.3,   16.8,   0.00,   0.00, 1010.7,   83.5, -999.0
03-08-2022, 00:39:35,    191,    1.0,   16.9,   0.00,   0.00, 1010.7,   83.5, -999.0
03-08-2022, 00:39:45,    188,    2.2,   16.8,   0.00,   0.00, 1010.7,   83.5, -999.0
03-08-2022, 00:39:55,    165,    1.9,   16.8,   0.00,   0.00, 1010.7,   83.5, -999.0
03-08-2022, 00:40:05,    172,    1.1,   16.8,   0.00,   0.00, 1010.7,   83.6, -999.0
03-08-2022, 00:40:15,    172,    0.0,   16.7,   0.00,   0.00, 1010.6,   83.4, -999.0
03-08-2022, 00:40:25,    170,    0.0,   16.7,   0.00,   0.00, 1010.6,   83.3, -999.0
03-08-2022, 00:40:35,    175,    0.0,   16.7,   0.00,   0.00, 1010.7,   83.5, -999.0
03-08-2022, 00:40:45,    175,    0.1,   16.6,   0.00,   0.00, 1010.6,   83.3, -999.0
03-08-2022, 00:40:55,    178,    1.2,   16.8,   0.00,   0.00, 1010.7,   83.7, -999.0
03-08-2022, 00:41:05,    179,    0.0,   16.7,   0.00,   0.00, 1010.6,   83.3, -999.0
03-08-2022, 00:41:15,    194,    0.1,   16.7,   0.00,   0.00, 1010.6,   83.4, -999.0
03-08-2022, 00:41:25,    194,    0.0,   16.8,   0.00,   0.00, 1010.6,   83.4, -999.0
03-08-2022, 00:41:35,    197,    0.0,   16.8,   0.00,   0.00, 1010.6,   83.4, -999.0
03-08-2022, 00:41:44,    196,    0.0,   16.7,   0.00,   0.00, 1010.6,   83.3, -999.0
03-08-2022, 00:41:55,    204,    0.8,   16.8,   0.00,   0.00, 1010.7,   83.6, -999.0
03-08-2022, 00:42:05,    200,    1.3,   16.8,   0.00,   0.00, 1010.6,   83.8, -999.0
03-08-2022, 00:42:14,    197,    0.3,   16.7,   0.00,   0.00, 1010.6,   83.6, -999.0
03-08-2022, 00:42:24,    200,    0.0,   16.8,   0.00,   0.00, 1010.6,   83.3, -999.0
03-08-2022, 00:42:35,    199,    0.2,   16.6,   0.00,   0.00, 1010.6,   83.5, -999.0
03-08-2022, 00:42:44,    216,    0.4,   16.8,   0.00,   0.00, 1010.6,   83.5, -999.0
03-08-2022, 00:42:54,    215,    1.5,   16.8,   0.00,   0.00, 1010.6,   83.8, -999.0
03-08-2022, 00:43:04,    218,    1.3,   16.8,   0.00,   0.00, 1010.6,   83.7, -999.0
03-08-2022, 00:43:14,    214,    0.8,   16.9,   0.00,   0.00, 1010.6,   83.7, -999.0
03-08-2022, 00:43:24,    160,    0.9,   16.8,   0.00,   0.00, 1010.6,   83.6, -999.0
03-08-2022, 00:43:34,    161,    0.0,   16.7,   0.00,   0.00, 1010.5,   83.4, -999.0
03-08-2022, 00:43:44,    165,    0.1,   16.8,   0.00,   0.00, 1010.6,   83.6, -999.0
03-08-2022, 00:43:54,    157,    1.5,   16.8,   0.00,   0.00, 1010.6,   83.7, -999.0
03-08-2022, 00:44:04,    170,    1.0,   16.8,   0.00,   0.00, 1010.6,   83.8, -999.0
03-08-2022, 00:44:14,    211,    0.6,   16.8,   0.00,   0.00, 1010.6,   83.5, -999.0
03-08-2022, 00:44:24,    210,    0.0,   16.7,   0.00,   0.00, 1010.6,   83.5, -999.0
03-08-2022, 00:44:34,    215,    1.1,   16.8,   0.00,   0.00, 1010.6,   83.8, -999.0
03-08-2022, 00:44:43,    214,    0.2,   16.7,   0.00,   0.00, 1010.5,   83.5, -999.0
03-08-2022, 00:44:53,    215,    1.4,   16.7,   0.00,   0.00, 1010.6,   83.6, -999.0
03-08-2022, 00:45:04,    198,    1.0,   16.8,   0.00,   0.00, 1010.6,   83.7, -999.0
03-08-2022, 00:45:13,    199,    0.3,   16.8,   0.00,   0.00, 1010.6,   83.6, -999.0
03-08-2022, 00:45:23,    204,    1.1,   16.8,   0.00,   0.00, 1010.6,   83.7, -999.0
03-08-2022, 00:45:34,    204,    2.3,   16.8,   0.00,   0.00, 1010.6,   83.7, -999.0
03-08-2022, 00:45:43,    150,    1.5,   16.9,   0.00,   0.00, 1010.6,   83.8, -999.0
03-08-2022, 00:45:53,    255,    2.3,   16.8,   0.00,   0.00, 1010.6,   83.8, -999.0
03-08-2022, 00:46:03,    182,    1.2,   16.8,   0.00,   0.00, 1010.6,   83.8, -999.0
03-08-2022, 00:46:13,    252,    1.7,   16.7,   0.00,   0.00, 1010.6,   83.7, -999.0
03-08-2022, 00:46:23,    206,    1.4,   16.8,   0.00,   0.00, 1010.6,   83.8, -999.0
03-08-2022, 00:46:33,    206,    0.2,   16.8,   0.00,   0.00, 1010.5,   83.5, -999.0